Location: Blue Sky Observatory
(43.1153°N, 70.9036°W)
Time: 06:08:32
(UTC-04:00)

Daily predictions for brighter satellites

Satellite Brightness Start Highest point End
(mag) Time Altitude Azimuth Time Altitude Azimuth Time Altitude Azimuth
Cosmos 1943 Rocket 4.2 18:53:27 10° NNE 18:54:28 10° NE 18:55:29 10° NE
Cosmos 1805 4.1 18:53:33 10° SSE 18:56:57 28° E 19:00:21 10° NNE
Cosmos 2369 Rocket 3.5 18:54:28 10° N 18:58:46 22° NE 19:03:03 10° E
Aureole 2 Rocket 3.2 18:55:22 10° SSW 18:59:45 77° WNW 19:04:01 10° NNE
Cosmos 1766 Rocket 3.8 18:56:55 10° N 19:01:09 46° ENE 19:05:19 10° SSE
Cosmos 1076 Rocket 3.6 18:57:19 10° N 19:01:36 57° E 19:05:53 10° SSE
NOAA 12 4.2 18:56:37 10° SSE 19:01:45 57° ENE 19:06:57 10° N
NOSS 3-2 (A) 3.5 18:56:01 10° SSW 19:02:06 88° SE 19:08:47 10° NE
Meteor 1-22 Rocket 4.1 18:58:00 10° S 19:03:20 87° E 19:08:39 10° N
Cosmos 1953 2.9 19:00:22 10° SSE 19:04:00 35° E 19:07:38 10° NNE
ATLAS CENTAUR R/B 4.0 19:01:49 10° WNW 19:05:02 22° WSW 19:08:04 10° SSW
Cosmos 1603 4.1 19:02:15 10° S 19:07:35 41° ESE 19:12:57 10° NE
Meteor 1-29 4.3 19:05:05 10° NE 19:07:43 20° E 19:10:20 10° SE
Meteor 1-24 Rocket 4.0 19:02:15 10° NNW 19:07:52 72° W 19:13:15 10° S
SAR-Lupe-1 4.0 19:06:55 10° SSE 19:10:28 75° ENE 19:14:02 10° N
Cosmos-2242 3.5 19:07:05 10° SSE 19:11:08 39° E 19:15:15 10° NNE
Cosmos 1452 Rocket 3.5 19:09:34 10° NNW 19:14:51 78° ENE 19:20:06 10° SSE
OAO 3 Rocket 4.4 19:11:18 10° WSW 19:15:27 31° S 19:19:31 11° ESE
Cosmos 2034 Rocket 4.0 19:13:11 10° S 19:19:19 61° E 19:25:34 10° NNE
Cosmos 1464 Rocket 4.0 19:13:34 10° S 19:19:49 82° E 19:26:01 10° N
In-Cosmos 22 4.2 19:14:48 10° N 19:20:37 77° E 19:26:21 10° SSE
Cosmos 1470 3.9 19:18:26 10° SE 19:21:25 21° E 19:24:24 10° NE
ASTEX 1 4.2 19:20:12 10° NNE 19:24:25 28° E 19:28:36 10° SSE
Spot 1 4.2 19:20:33 10° SSE 19:25:12 68° ENE 19:29:36 10° N
Cosmos 1674 3.5 19:25:00 10° NNE 19:28:29 31° ENE 19:31:20 14° SE
CZ-4C R/B 4.1 19:23:56 10° W 19:28:45 29° NW 19:34:06 10° NNE
CENTAUR R/B 3.1 19:25:43 10° S 19:30:59 32° ESE 19:36:45 10° NE
Cosmos 1408 Rocket 3.7 19:28:41 10° NNW 19:33:02 74° W 19:37:19 10° S
ATLAS CENTAUR R/B 3.8 19:27:53 10° SW 19:33:05 90° SE 19:50:26 10° NE
SJ-6B 3.4 19:29:09 10° S 19:33:07 62° W 19:37:11 10° NNW
Cosmos 468 4.4 19:28:23 10° S 19:33:35 68° ESE 19:38:47 10° NNE
Cosmos 1500 Rocket 4.1 19:29:38 10° N 19:33:46 37° ENE 19:37:37 11° SE
Cosmos 1420 Rocket 4.0 19:29:44 10° NNW 19:35:02 66° ENE 19:40:19 10° SSE
Cosmos 1842 Rocket 4.1 19:31:16 10° SSE 19:35:09 34° E 19:39:06 10° NNE
Cosmos 724 4.3 19:31:13 10° SSW 19:37:09 82° ESE 19:43:16 10° NE
ATLAS 5 CENTAUR R/B 2.2 19:33:23 10° SW 19:38:10 68° NW 19:43:24 10° NNE
FengYun 1-2 T 4.2 19:35:07 10° SSE 19:40:34 66° ENE 19:46:01 10° N
NOSS 3-2 (C) 3.9 19:35:44 10° SW 19:41:48 66° NW 19:48:31 10° NNE
ALOS 2.4 19:42:06 10° SSE 19:46:39 54° ENE 19:51:12 10° N
Cosmos 1758 3.7 19:43:43 10° SSW 19:47:46 68° W 19:51:53 10° N
ERBS 4.3 19:46:40 10° NNW 19:49:04 17° NNE 19:49:48 16° NE
Helios 1A 3.0 19:46:36 10° SSE 19:50:48 86° WSW 19:55:03 10° NNW
Spot 2 Rocket 3.6 19:46:04 10° S 19:51:05 78° WSW 19:56:10 10° NNW
ISS -3.3 19:51:03 10° SW 19:54:14 55° SE 19:54:42 48° ESE
Cosmos 1048 Rocket 3.9 19:49:42 10° S 19:54:58 69° ESE 20:00:11 10° NNE
Cosmos 1544 3.2 19:53:36 10° SSW 19:57:20 76° W 20:01:06 10° N
Cosmos 1269 Rocket 3.9 19:52:38 10° SSW 19:57:55 85° ESE 20:03:14 10° NNE
Resurs 1-3 3.7 19:56:02 10° S 20:00:25 78° WSW 20:04:51 10° NNW
SL-8 R/B 3.6 19:57:25 10° SW 20:02:12 76° SSE 20:04:21 32° ENE
Envisat 4.2 20:02:22 23° ENE 20:02:22 23° ENE 20:06:09 10° NNE
Cosmos 1743 Rocket 3.7 19:58:35 10° NNW 20:03:02 75° W 20:07:25 10° S
SL-16 R/B 4.1 19:59:14 10° WSW 20:04:11 30° NW 20:09:12 10° N
Resurs 01 Rocket 2.4 20:01:47 10° S 20:06:07 53° W 20:10:30 10° NNW
Cosmos 1174 4.0 20:03:01 10° SSW 20:07:37 50° ESE 20:08:09 47° E
Cosmos 1328 4.0 20:08:31 10° N 20:12:09 49° ENE 20:12:09 49° ENE
USA 215 3.1 20:05:55 10° NE 20:12:29 77° SE 20:19:01 10° SW
Cosmos 158 Rocket 3.7 20:08:53 10° S 20:13:40 60° ESE 20:18:29 10° NNE
FENGYUN 3A 3.6 20:10:09 10° SSE 20:15:32 85° WSW 20:20:58 10° NNW
CZ-2D R/B 3.2 20:15:36 41° SSE 20:16:54 89° WNW 20:20:48 10° NNW
Helios 1B rocket 3.8 20:19:01 10° N 20:22:53 41° WNW 20:26:45 10° SW
Cosmos 2279 Rocket 4.2 20:25:11 43° ESE 20:25:52 45° E 20:31:43 10° NNE
Abrixas 3.9 20:24:55 10° WSW 20:26:59 38° W 20:26:59 38° W
H-2A R/B 3.1 20:28:07 43° SSW 20:29:12 65° W 20:33:03 10° NNW
GP-B 2.9 20:25:24 10° N 20:29:52 82° E 20:30:37 61° SSE
CZ-4B DEB 4.2 20:31:57 34° SW 20:32:34 38° W 20:35:39 10° NNW
Cosmos 1092 Rocket 4.2 20:26:34 10° NNW 20:32:44 69° W 20:38:49 10° S
ERS-1 Rocket 3.3 20:35:35 47° NE 20:35:35 47° NE 20:39:52 10° N
Cosmos 1655 Rocket 3.9 20:32:46 10° N 20:39:00 70° E 20:40:33 51° SE
Gbstr 26 Del rocket 3.2 20:34:50 10° SW 20:39:25 81° SE 20:39:49 74° E
Cosmos 1943 Rocket 2.3 20:34:07 10° NNW 20:39:37 53° ENE 20:39:37 53° ENE
Cosmos 2142 Rocket 4.5 20:35:14 10° S 20:41:37 86° W 20:48:03 10° N
Cosmos 2369 Rocket 2.4 20:37:41 10° NNW 20:43:18 67° WSW 20:45:20 40° S
H-2A R/B 4.2 20:46:02 17° NNE 20:46:02 17° NNE 20:47:18 10° N
Cosmos 2026 Rocket 3.8 20:38:49 10° N 20:44:58 85° E 20:46:56 46° SSE
Cosmos 1943 3.3 20:39:34 10° SSW 20:45:12 75° WNW 20:50:51 10° NNE
Cosmos 1110 Rocket 3.8 20:40:28 10° NNW 20:45:49 85° ENE 20:46:09 78° SE
Cosmos 1428 Rocket 4.5 20:41:26 10° N 20:47:40 60° E 20:47:47 60° E
Cosmos 2058 4.0 20:45:16 10° N 20:47:52 38° N 20:47:52 38° N
Cosmos 1634 Rocket 4.2 20:43:18 10° SSW 20:49:31 71° W 20:55:44 10° N
Cosmos 2151 3.5 20:48:07 10° NNW 20:52:06 56° W 20:52:06 56° W
Cosmos 2263 4.2 20:47:00 10° NNW 20:52:48 78° WSW 20:53:42 63° S
Meteor 2-20 4.4 21:06:47 10° N 21:12:34 79° N 21:12:34 79° N
Meteor 2-1 Rocket 4.4 21:16:32 73° WNW 21:16:32 73° WNW 21:22:20 10° N
CENTAUR R/B 3.2 21:15:16 10° WSW 21:21:17 52° NW 21:28:05 10° NNE
Envisat 4.4 21:42:35 35° NW 21:42:35 35° NW 21:45:50 10° NNW
USA 215 4.2 21:53:08 33° NNE 21:55:12 41° NNW 22:01:14 10° W
Cosmos 1943 Rocket 4.4 22:18:40 10° NW 22:21:09 20° WNW 22:21:09 20° WNW
